User: anonymous   Login
Location: Unspecified
(0.0000°N, 0.0000°E)
Time: 08:31:15
(UTC+00:00)
Language:

TIGRISAT - Orbit

View from above orbital plane
View from above orbital plane
View from above satellite
View from above satellite

Ground track
Ground track

The orbit data is extracted from the following two-line orbital elements,

1 40043U 14033AK  20023.43813571  .00000111  00000-0  23517-4 0  9996
2 40043  97.7276 246.5712 0061248 110.0550 250.7266 14.74333430300835
Epoch (UTC): 23 January 2020 10:30:54
Eccentricity: 0.0061248
inclination: 97.7276°
perigee height: 604 km
apogee height: 690 km
right ascension of ascending node: 246.5712°
argument of perigee: 110.0550°
revolutions per day: 14.74333430
mean anomaly at epoch: 250.7266°
orbit number at epoch: 30083

The dashed part of the orbit path shows where the satellite is in the earth's shadow,  

DLR